Regional Weather Roundup
Issued by NWS

Home | Current Version | Previous Version | Text Only | Print | Product List | Glossary On
Versions: 1 2 3 4 5 6 7 8 9 10 11 12 13 14 15 16 17 18 19 20 21 22 23 24 25 26 27 28
000
ASUS45 KREV 291910
RWRNV
NEVADA REGIONAL WEATHER ROUNDUP
NATIONAL WEATHER SERVICE RENO NV
1200 PM PDT MON AUG 29 2016

NOTE: "FAIR" INDICATES FEW OR NO CLOUDS BELOW 12,000 FEET WITH NO
SIGNIFICANT WEATHER AND/OR OBSTRUCTIONS TO VISIBILITY.

NVZ001-003-004-292000-
WESTERN NEVADA

CITY           SKY/WX    TMP DP  RH WIND       PRES   REMARKS
RENO           PTSUNNY   83  26  12 E6        30.21F
CARSON CITY    FAIR      84  14   7 SE3       30.23F
MINDEN         FAIR      84  23  10 E3        30.22F
PYRAMID LAKE     N/A     75 N/A N/A N7          N/A
FALLON         PTSUNNY   86  36  16 CALM      30.18F
LOVELOCK       MOSUNNY   88  23   9 S6        30.18F
$$

NVZ002-CAZ072-073-292000-
NORTHERN AND CENTRAL SIERRA

CITY           SKY/WX    TMP DP  RH WIND       PRES   REMARKS
S. LAKE TAHOE  SUNNY     75  36  24 VRB5      30.34F
TRUCKEE        PTSUNNY   79  25  13 N5        30.32F
SQUAW VLY 8000 NOT AVBL
MAMMOTH LAKES  FAIR      80  23  12 SE8       30.40F
BRIDGEPORT       N/A     83  14   7 SW14G22   30.33S
$$

NVZ030-031-036-292000-
NORTHERN NEVADA

CITY           SKY/WX    TMP DP  RH WIND       PRES   REMARKS
ELKO           MOSUNNY   85  26  11 SW5       30.24F
WINNEMUCCA     PTSUNNY   85  19   9 N5        30.20F
WENDOVER       SUNNY     84  34  16 E5        30.23F
$$

NVZ035-037-292000-
CENTRAL NEVADA

CITY           SKY/WX    TMP DP  RH WIND       PRES   REMARKS
ELY            SUNNY     84  23  10 VRB5      30.33F
EUREKA           N/A     86  27  11 E3        30.29F
$$

NVZ013-014-292000-
SOUTH CENTRAL NEVADA

CITY           SKY/WX    TMP DP  RH WIND       PRES   REMARKS
TONOPAH        SUNNY     86  25  11 VRB3      30.28F
$$

NVZ017-020-022-292000-
SOUTHERN NEVADA

CITY           SKY/WX    TMP DP  RH WIND       PRES   REMARKS
LAS VEGAS      MOSUNNY   96  41  15 N5        30.00F
N. LAS VEGAS   SUNNY     95  44  17 VRB3      30.02F
NELLIS AFB     SUNNY     95  48  20 W3        30.00F
HENDERSON      SUNNY     93  49  22 N6        30.06F
MERCURY        SUNNY     96  36  12 CALM      30.09F
$$




USA.gov is the U.S. government's official web portal to all federal, state and local government web resources and services.